Weather History for KSFY - January, 2013

Change the Weather History Date:

Thursday, January 3, 2013

  Actual Average (KCWI) Record (KCWI)
Temperature  
Mean Temperature 21 °F -  
Max Temperature 29 °F 30 °F 57 °F (1998)
Min Temperature 12 °F 13 °F -16 °F (1985)
Degree Days  
Heating Degree Days 44    
Moisture  
Dew Point 16 °F    
Average Humidity 79    
Maximum Humidity 92    
Minimum Humidity 67    
Precipitation  
Precipitation 0.00 in - - ()
Sea Level Pressure  
Sea Level Pressure 30.22 in    
Wind  
Wind Speed 8 mph (West)    
Max Wind Speed 13 mph    
Max Gust Speed 21 mph    
Visibility 9 miles    
Events Snow    
Averages and records for this station are not official NWS values.
T = Trace of Precipitation, MM = Missing Value Source: NWS Daily Summary

Daily Weather History Graph

Daily Weather History Graph

Search for Another Location

Airport or City:

Trip Planner

Search our weather history database for the weather conditions in past years. The results will help you decide how hot, cold, wet, or windy it might be!

Date:

Astronomy

Jan. 03, 2013 Rise Set
Actual Time 7:28 AM CST 4:41 PM CST
Civil Twilight 6:57 AM CST 5:13 PM CST
Nautical Twilight 6:22 AM CST 5:48 PM CST
Astronomical Twilight 5:48 AM CST 6:22 PM CST
Moon 11:24 PM CST 10:33 AM CST
Length of Visible Light 10h 15m
Length of Day
9h 12m
Waning Gibbous, 65% of the Moon is Illuminated
Jan 3
Waning Gibbous
Jan 4
Last Quarter
Jan 11
New
Jan 18
First Quarter
Jan 26
Full

Hourly Weather History & Observations

Time (CST) Temp. Windchill Dew Point Humidity Pressure Visibility Wind Dir Wind Speed Gust Speed Precip Events Conditions
12:15 AM 26.6 °F 19.1 °F 22.1 °F 83% 30.10 in 10.0 mi WSW 6.9 mph - N/A   Overcast
12:35 AM 27.0 °F 20.5 °F 22.6 °F 84% 30.10 in 7.0 mi West 5.8 mph - N/A   Overcast
12:55 AM 27.1 °F 19.7 °F 23.0 °F 84% 30.10 in 7.0 mi West 6.9 mph - N/A   Overcast
1:15 AM 27.0 °F 19.5 °F 23.7 °F 88% 30.10 in 4.0 mi West 6.9 mph - N/A   Overcast
1:35 AM 27.0 °F 19.5 °F 24.8 °F 92% 30.10 in 4.0 mi West 6.9 mph - N/A Snow Light Snow
1:55 AM 27.1 °F 21.8 °F 25.2 °F 92% 30.11 in 5.0 mi West 4.6 mph - N/A   Overcast
2:15 AM 27.3 °F 22.0 °F 25.2 °F 92% 30.11 in 5.0 mi West 4.6 mph - N/A   Overcast
2:35 AM 27.5 °F 23.6 °F 24.8 °F 90% 30.11 in 5.0 mi West 3.5 mph - N/A   Overcast
2:55 AM 27.5 °F 21.1 °F 25.0 °F 90% 30.11 in 5.0 mi West 5.8 mph - N/A   Overcast
3:15 AM 28.0 °F 22.8 °F 25.3 °F 90% 30.11 in 7.0 mi West 4.6 mph - N/A   Overcast
3:35 AM 28.2 °F 23.1 °F 25.7 °F 90% 30.11 in 7.0 mi West 4.6 mph - N/A   Overcast
3:55 AM 28.2 °F 20.2 °F 25.7 °F 90% 30.11 in 5.0 mi West 8.1 mph - N/A   Mostly Cloudy
4:15 AM 28.2 °F 20.2 °F 25.7 °F 90% 30.11 in 7.0 mi WSW 8.1 mph - N/A   Mostly Cloudy
4:35 AM 28.6 °F 21.5 °F 25.7 °F 89% 30.12 in 7.0 mi West 6.9 mph - N/A   Overcast
4:55 AM 28.9 °F 22.8 °F 25.7 °F 88% 30.12 in 7.0 mi West 5.8 mph - N/A   Overcast
5:15 AM 29.1 °F 20.6 °F 25.5 °F 86% 30.12 in 10.0 mi WSW 9.2 mph - N/A   Overcast
5:35 AM 28.4 °F 20.4 °F 24.3 °F 84% 30.13 in 10.0 mi WSW 8.1 mph - N/A   Mostly Cloudy
5:55 AM 27.5 °F 18.0 °F 19.4 °F 72% 30.14 in 10.0 mi West 10.4 mph 20.7 mph N/A   Mostly Cloudy
6:15 AM 26.4 °F 16.6 °F 18.5 °F 72% 30.15 in 10.0 mi WNW 10.4 mph - N/A   Mostly Cloudy
6:35 AM 25.7 °F 17.1 °F 18.7 °F 75% 30.16 in 10.0 mi WNW 8.1 mph - N/A   Clear
6:55 AM 25.3 °F 16.7 °F 18.9 °F 76% 30.16 in 10.0 mi WNW 8.1 mph - N/A   Scattered Clouds
7:15 AM 24.4 °F 14.2 °F 18.5 °F 78% 30.17 in 10.0 mi WNW 10.4 mph 17.3 mph N/A   Scattered Clouds
7:35 AM 23.9 °F 13.5 °F 18.1 °F 79% 30.18 in 10.0 mi WNW 10.4 mph 17.3 mph N/A   Mostly Cloudy
7:55 AM 23.4 °F 12.2 °F 18.1 °F 80% 30.19 in 10.0 mi WNW 11.5 mph - N/A   Scattered Clouds
8:15 AM 22.8 °F 11.5 °F 17.6 °F 80% 30.19 in 10.0 mi WNW 11.5 mph - N/A   Clear
8:35 AM 22.6 °F 12.6 °F 16.7 °F 78% 30.20 in 10.0 mi WNW 9.2 mph - N/A   Clear
8:55 AM 22.8 °F 12.9 °F 16.7 °F 77% 30.21 in 10.0 mi West 9.2 mph - N/A   Clear
9:15 AM 23.4 °F 12.8 °F 15.4 °F 72% 30.21 in 10.0 mi West 10.4 mph - N/A   Scattered Clouds
9:35 AM 23.4 °F 11.6 °F 14.0 °F 67% 30.22 in 10.0 mi West 12.7 mph - N/A   Mostly Cloudy
9:55 AM 21.6 °F 9.9 °F 13.6 °F 72% 30.22 in 10.0 mi WNW 11.5 mph 17.3 mph N/A   Overcast
10:15 AM 20.8 °F 9.0 °F 13.1 °F 72% 30.24 in 10.0 mi WNW 11.5 mph - N/A   Overcast
10:35 AM 20.3 °F 8.3 °F 12.0 °F 70% 30.24 in 10.0 mi WNW 11.5 mph 18.4 mph N/A   Overcast
10:55 AM 19.8 °F 8.3 °F 12.0 °F 72% 30.24 in 10.0 mi West 10.4 mph - N/A   Overcast
11:15 AM 20.1 °F 8.8 °F 12.7 °F 73% 30.24 in 10.0 mi West 10.4 mph - N/A   Overcast
11:35 AM 20.3 °F 8.3 °F 13.5 °F 75% 30.24 in 10.0 mi WNW 11.5 mph - N/A   Overcast
11:55 AM 20.3 °F 9.0 °F 13.5 °F 75% 30.23 in 10.0 mi West 10.4 mph - N/A   Mostly Cloudy
12:15 PM 21.7 °F 10.2 °F 14.4 °F 73% 30.23 in 10.0 mi WNW 11.5 mph - N/A   Clear
12:35 PM 21.9 °F 10.4 °F 14.2 °F 72% 30.23 in 10.0 mi West 11.5 mph - N/A   Clear
12:55 PM 21.6 °F 11.3 °F 14.2 °F 73% 30.24 in 10.0 mi WSW 9.2 mph - N/A   Scattered Clouds
1:15 PM 21.9 °F 11.7 °F 14.2 °F 72% 30.24 in 10.0 mi West 9.2 mph - N/A   Overcast
1:35 PM 22.1 °F 12.0 °F 14.7 °F 73% 30.24 in 10.0 mi West 9.2 mph - N/A   Overcast
1:55 PM 22.5 °F 12.4 °F 14.9 °F 73% 30.24 in 10.0 mi West 9.2 mph - N/A   Overcast
2:15 PM 22.8 °F 12.2 °F 15.3 °F 73% 30.24 in 10.0 mi West 10.4 mph - N/A   Overcast
2:35 PM 22.8 °F 13.6 °F 15.6 °F 74% 30.25 in 10.0 mi West 8.1 mph - N/A   Overcast
2:55 PM 22.1 °F 12.8 °F 15.6 °F 76% 30.25 in 10.0 mi WSW 8.1 mph - N/A   Overcast
3:55 PM 21.7 °F 11.5 °F 15.6 °F 77% 30.27 in 10.0 mi WSW 9.2 mph - N/A   Overcast
4:15 PM 21.2 °F 10.9 °F 15.6 °F 79% 30.28 in 10.0 mi WSW 9.2 mph - N/A   Overcast
4:35 PM 21.4 °F 12.8 °F 15.6 °F 78% 30.29 in 10.0 mi West 6.9 mph - N/A   Overcast
4:55 PM 21.2 °F 11.7 °F 15.6 °F 79% 30.29 in 10.0 mi West 8.1 mph - N/A   Overcast
5:15 PM 20.8 °F 10.4 °F 14.9 °F 78% 30.29 in 10.0 mi West 9.2 mph - N/A   Overcast
5:35 PM 20.3 °F 9.0 °F 14.4 °F 78% 30.30 in 10.0 mi West 10.4 mph - N/A   Overcast
5:55 PM 20.3 °F 9.8 °F 14.0 °F 77% 30.30 in 10.0 mi West 9.2 mph - N/A   Overcast
6:15 PM 19.9 °F 11.1 °F 14.0 °F 78% 30.30 in 10.0 mi West 6.9 mph - N/A   Overcast
6:35 PM 19.8 °F 10.8 °F 13.8 °F 78% 30.30 in 10.0 mi West 6.9 mph - N/A   Overcast
6:55 PM 19.4 °F 9.5 °F 13.6 °F 78% 30.31 in 10.0 mi West 8.1 mph - N/A   Overcast
7:15 PM 19.4 °F 9.5 °F 13.3 °F 77% 30.31 in 10.0 mi West 8.1 mph - N/A   Overcast
7:35 PM 19.2 °F 10.2 °F 13.1 °F 77% 30.31 in 10.0 mi West 6.9 mph - N/A   Overcast
7:55 PM 18.3 °F 5.9 °F 12.2 °F 77% 30.31 in 10.0 mi West 11.5 mph 17.3 mph N/A   Scattered Clouds
8:15 PM 17.1 °F 5.0 °F 10.4 °F 75% 30.32 in 10.0 mi West 10.4 mph - N/A   Clear
8:35 PM 15.8 °F 6.1 °F 10.0 °F 78% 30.32 in 10.0 mi West 6.9 mph - N/A   Clear
8:55 PM 15.4 °F 3.0 °F 9.5 °F 77% 30.31 in 10.0 mi West 10.4 mph - N/A   Clear
9:15 PM 14.9 °F 3.1 °F 9.3 °F 79% 30.30 in 10.0 mi West 9.2 mph - N/A   Clear
9:35 PM 14.7 °F 2.1 °F 9.1 °F 79% 30.30 in 10.0 mi West 10.4 mph - N/A   Clear
9:55 PM 14.5 °F 2.7 °F 9.0 °F 79% 30.31 in 10.0 mi West 9.2 mph - N/A   Clear
10:15 PM 14.0 °F 2.0 °F 8.6 °F 79% 30.31 in 10.0 mi West 9.2 mph - N/A   Clear
10:35 PM 14.0 °F 1.2 °F 8.6 °F 79% 30.30 in 10.0 mi West 10.4 mph - N/A   Clear
10:55 PM 13.6 °F 2.5 °F 8.4 °F 80% 30.30 in 10.0 mi WSW 8.1 mph - N/A   Clear
11:15 PM 13.5 °F 2.2 °F 8.4 °F 80% 30.30 in 10.0 mi WSW 8.1 mph - N/A   Clear
11:35 PM 13.1 °F 5.4 °F 8.2 °F 81% 30.29 in 10.0 mi West 4.6 mph - N/A   Clear
11:55 PM 12.9 °F 6.9 °F 8.2 °F 82% 30.28 in 10.0 mi WSW 3.5 mph - N/A   Clear